Regional Weather Roundup
Issued by NWS Kansas City/Pleasant Hill, MO

Home | Current Version | Previous Version | Text Only | Print | Product List | Glossary On
Versions: 1 2 3 4 5 6 7 8 9 10 11 12 13 14 15 16 17 18 19 20 21 22 23 24 25 26 27 28 29 30 31 32 33 34 35 36 37 38 39 40 41 42 43 44 45 46 47 48 49 50
000
ASUS43 KEAX 230510
RWREAX

WEATHER ROUNDUP FOR EASTERN KANSAS AND NORTHWEST MISSOURI
NATIONAL WEATHER SERVICE KANSAS CITY/PLEASANT HILL MO
1200 AM CDT SUN APR 23 2017

KSZ040-057-103>105-MOZ028-029-037-043-230600-
...KANSAS CITY METROPOLITAN AREA...

CITY           SKY/WX    TMP DP  RH WIND       PRES   REMARKS
K.C. INTL      CLEAR     49  31  49 N5        30.19R
K.C. DOWNTOWN  CLEAR     52  30  43 N3        30.18R
LEES SUMMIT    CLEAR     50  32  50 N6        30.18R
OLATHE - IXD   CLEAR     43  33  68 N8        30.19R
OLATHE - OJC   CLEAR     51  31  46 N5        30.18R
LAWRENCE       CLEAR     43  36  76 N7        30.19S

$$

MOZ001>008-011>017-020>025-030>033-038>040-044>046-053-054-230600-
...NORTHERN AND CENTRAL MISSOURI...

CITY           SKY/WX    TMP DP  RH WIND       PRES   REMARKS
ST. JOSEPH     CLEAR     41  35  79 N3        30.20R
MOSBY          CLEAR     45  36  70 CALM      30.19S
WHITEMAN AFB   CLEAR     44  36  72 N6        30.14R
CLINTON        CLEAR     45  39  81 N8        30.15R
SEDALIA        NOT AVBL
WARSAW         NOT AVBL
CHILLICOTHE      N/A     43  35  73 CALM      30.19S
KIRKSVILLE     CLEAR     44  34  67 N5        30.17S

$$

MOZ041-047>049-056>058-063>065-088>090-097-230600-
...EASTERN AND SOUTHERN MISSOURI...

CITY           SKY/WX    TMP DP  RH WIND       PRES   REMARKS
ST. LOUIS INTL CLEAR     49  37  63 E6        30.10S
SPIRIT OF STL  CLEAR     42  40  92 CALM      30.10S
COLUMBIA       CLEAR     46  36  68 N8        30.13R
JEFFERSON CITY CLEAR     54  35  48 N7        30.12R
ROLLA          CLOUDY    46  38  73 NE7       30.08S
OSAGE BEACH    PTCLDY    48  39  71 N5        30.11S
SPRINGFIELD    CLOUDY    48  44  86 NW6       30.09F
BRANSON        CLOUDY    46  46 100 CALM      30.09F
JOPLIN         MOCLDY    47  45  93 CALM      30.14S
WEST PLAINS    CLOUDY    49  42  77 N8        30.05S

$$

IAZ060-094-KSZ022-034>040-054-083-096-NEZ052-066-093-230600-
...KANSAS...SOUTHEAST NEBRASKA AND IOWA...

CITY           SKY/WX    TMP DP  RH WIND       PRES   REMARKS
TOPEKA         CLEAR     46  39  76 CALM      30.20R
MANHATTAN      CLEAR     39  35  86 CALM      30.21S
EMPORIA        CLEAR     48  35  60 N5        30.19R
CHANUTE        CLEAR     47  36  65 N7        30.16S
WICHITA        CLEAR     50  38  63 N7        30.20R
OMAHA          CLEAR     49  35  58 E3        30.19F
LINCOLN        CLEAR     46  35  65 NW3       30.22F
FALLS CITY     CLEAR     47  33  58 NW3       30.20S
LAMONI         CLEAR     47  31  53 CALM      30.19S
DES MOINES     CLEAR     53  30  41 CALM      30.18S

$$




USA.gov is the U.S. government's official web portal to all federal, state and local government web resources and services.